EW2727 Weather Reports


Display with metric or nautical units.
time (UTC)temp
F
wind
direction
speed
MPH
gust
MPH
rain 1hr
in
rain 24hr
in
rain mn
in
humidity
%
barometer
mb
20260505054522 54 286 0.0 0.0 0.00 0.00 0.00 72 1011.4
20260505053012 54 287 0.0 0.0 0.00 0.00 0.00 71 1011.4
20260505051511 55 281 0.0 0.0 0.00 0.00 0.00 70 1011.3
20260505041534 56 282 0.0 0.0 0.00 0.00 0.00 67 1011.4
20260505040032 56 294 0.0 0.0 0.00 0.00 0.00 66 1011.5
20260505034529 56 269 0.0 0.0 0.00 0.00 0.00 64 1011.3
20260505033035 57 317 0.0 0.0 0.00 0.00 0.00 63 1011.3
20260505031528 57 254 0.0 0.0 0.00 0.00 0.00 61 1011.4
20260505030025 57 257 0.0 0.0 0.00 0.00 0.00 60 1011.3
20260505024547 58 274 0.0 0.0 0.00 0.00 0.00 58 1011.4
20260505023032 58 263 0.0 0.0 0.00 0.00 0.00 57 1011.5
20260505021541 58 292 0.0 0.0 0.00 0.00 0.00 55 1011.4
20260505020019 59 262 0.0 0.0 0.00 0.00 0.00 53 1011.4
20260505014524 59 273 0.0 0.0 0.00 0.00 0.00 52 1011.4
20260505013019 60 255 0.0 0.0 0.00 0.00 0.00 51 1011.2
20260505011521 60 267 0.0 0.0 0.00 0.00 0.00 51 1010.9
20260505010016 60 264 0.0 0.0 0.00 0.00 0.00 51 1010.6
20260505004522 61 229 0.0 0.0 0.00 0.00 0.00 50 1010.5
20260505003015 62 282 0.0 0.0 0.00 0.00 0.00 48 1009.9
20260505001515 63 241 0.0 0.0 0.00 0.00 0.00 46 1009.6
20260505000019 64 242 0.0 0.0 0.00 0.00 0.00 43 1009.2
20260505000015 64 360 0.0 0.0 0.00 0.00 0.00 43 1009.2
20260504234543 65 254 0.0 0.0 0.00 0.00 0.00 43 1009.2
20260504233055 65 262 0.0 0.0 0.00 0.00 0.00 43 1008.8
20260504231512 66 290 0.0 0.0 0.00 0.00 0.00 41 1008.5
20260504230012 67 253 0.0 0.0 0.00 0.00 0.00 40 1008.1
20260504224510 67 248 0.0 0.0 0.00 0.00 0.00 39 1007.9
20260504223008 69 269 0.0 0.0 0.00 0.00 0.00 37 1007.8
20260504221508 69 281 0.0 0.0 0.00 0.00 0.00 35 1007.6
20260504220007 72 253 0.0 0.0 0.00 0.00 0.00 31 1007.5
20260504214536 71 319 0.0 0.0 0.00 0.00 0.00 29 1007.6
20260504213034 72 300 0.0 0.0 0.00 0.00 0.00 28 1007.5
20260504211504 71 321 0.0 0.0 0.00 0.00 0.00 29 1007.4
20260504210002 72 344 0.0 0.0 0.00 0.00 0.00 28 1007.5
20260504204546 71 277 0.0 0.0 0.00 0.00 0.00 27 1007.5
20260504203032 72 288 0.0 0.0 0.00 0.00 0.00 27 1007.5
20260504201526 71 360 0.0 0.0 0.00 0.00 0.00 26 1007.6
20260504200025 71 264 0.0 0.0 0.00 0.00 0.00 26 1007.6
20260504194524 70 277 0.0 0.0 0.00 0.00 0.00 27 1007.6
20260504193024 71 290 0.0 0.0 0.00 0.00 0.00 25 1007.7
20260504191520 71 278 0.0 0.0 0.00 0.00 0.00 26 1007.6
20260504190019 71 305 0.0 0.0 0.00 0.00 0.00 26 1007.7
20260504184523 70 277 0.0 0.0 0.00 0.00 0.00 26 1007.8
20260504183014 70 321 0.0 0.0 0.00 0.00 0.00 27 1007.9
20260504181509 69 335 0.0 0.0 0.00 0.00 0.00 27 1008.3
20260504180009 68 261 0.0 0.0 0.00 0.00 0.00 28 1008.5
20260504174507 69 293 0.0 0.0 0.00 0.00 0.00 28 1008.6
20260504173007 68 274 0.0 0.0 0.00 0.00 0.00 29 1008.4
20260504171501 67 338 0.0 0.0 0.00 0.00 0.00 29 1008.7
20260504081538 48 309 0.0 0.0 0.00 0.01 0.00 49 1011.4
20260504080122 48 304 0.0 0.0 0.00 0.01 0.00 48 1011.4